| time (UTC) | temp F | wind direction | speed knots | gust knots | rain 1hr in | rain 24hr in | rain mn in | humidity % | barometer mb |
| 20260510034710 | 40 | 152 | 0.0 | 1.7 | 0.00 | 0.00 | 0.00 | 89 | 1017.1 |
| 20260510034211 | 39 | 152 | 0.9 | 1.7 | 0.00 | 0.00 | 0.00 | 89 | 1017.1 |
| 20260510033711 | 39 | 152 | 0.9 | 0.9 | 0.00 | 0.00 | 0.00 | 90 | 1017.1 |
| 20260510033218 | 39 | 152 | 0.0 | 0.9 | 0.00 | 0.00 | 0.00 | 92 | 1017.2 |
| 20260510032710 | 39 | 152 | 0.0 | 0.0 | 0.00 | 0.00 | 0.00 | 92 | 1017.4 |
| 20260510032210 | 38 | 152 | 0.0 | 0.0 | 0.00 | 0.00 | 0.00 | 92 | 1017.4 |
| 20260510031710 | 38 | 152 | 0.0 | 0.0 | 0.00 | 0.00 | 0.00 | 93 | 1017.4 |
| 20260510031210 | 37 | 152 | 0.0 | 0.0 | 0.00 | 0.00 | 0.00 | 92 | 1017.5 |
| 20260510030710 | 37 | 152 | 0.0 | 0.0 | 0.00 | 0.00 | 0.00 | 93 | 1017.6 |
| 20260510030209 | 36 | 152 | 0.0 | 0.0 | 0.00 | 0.00 | 0.00 | 91 | 1017.6 |
| 20260510025710 | 35 | 152 | 0.0 | 0.0 | 0.00 | 0.00 | 0.00 | 91 | 1017.6 |
| 20260510025436 | 35 | 152 | 0.0 | 0.0 | 0.00 | 0.00 | 0.00 | 91 | 1017.6 |
| 20260510024710 | 36 | 152 | 0.0 | 0.9 | 0.00 | 0.00 | 0.00 | 91 | 1017.6 |
| 20260510024210 | 35 | 152 | 0.0 | 1.7 | 0.00 | 0.00 | 0.00 | 91 | 1017.6 |
| 20260510023710 | 35 | 152 | 0.0 | 1.7 | 0.00 | 0.00 | 0.00 | 90 | 1017.7 |
| 20260510023210 | 35 | 152 | 0.9 | 1.7 | 0.00 | 0.00 | 0.00 | 90 | 1017.8 |
| 20260510022936 | 35 | 152 | 0.0 | 1.7 | 0.00 | 0.00 | 0.00 | 90 | 1017.9 |
| 20260510022211 | 35 | 152 | 0.9 | 1.7 | 0.00 | 0.00 | 0.00 | 90 | 1017.9 |
| 20260510021710 | 35 | 152 | 0.0 | 0.0 | 0.00 | 0.00 | 0.00 | 89 | 1018.0 |
| 20260510021210 | 35 | 152 | 0.0 | 0.0 | 0.00 | 0.00 | 0.00 | 89 | 1018.1 |
| 20260510020709 | 36 | 152 | 0.0 | 0.0 | 0.00 | 0.00 | 0.00 | 89 | 1018.1 |
| 20260510020210 | 36 | 152 | 0.0 | 0.0 | 0.00 | 0.00 | 0.00 | 89 | 1018.2 |
| 20260510015710 | 36 | 152 | 0.0 | 0.0 | 0.00 | 0.00 | 0.00 | 89 | 1018.3 |
| 20260510015211 | 36 | 152 | 0.0 | 0.0 | 0.00 | 0.00 | 0.00 | 88 | 1018.4 |
| 20260510014710 | 36 | 152 | 0.0 | 0.0 | 0.00 | 0.00 | 0.00 | 88 | 1018.4 |
| 20260510014432 | 36 | 152 | 0.0 | 0.0 | 0.00 | 0.00 | 0.00 | 88 | 1018.5 |
| 20260510013710 | 36 | 152 | 0.0 | 0.0 | 0.00 | 0.00 | 0.00 | 87 | 1018.5 |
| 20260510013211 | 36 | 152 | 0.0 | 0.0 | 0.00 | 0.00 | 0.00 | 87 | 1018.6 |
| 20260510012711 | 36 | 152 | 0.0 | 0.0 | 0.00 | 0.00 | 0.00 | 86 | 1018.6 |
| 20260510012210 | 37 | 152 | 0.0 | 0.0 | 0.00 | 0.00 | 0.00 | 86 | 1018.7 |
| 20260510011710 | 37 | 152 | 0.0 | 0.0 | 0.00 | 0.00 | 0.00 | 86 | 1018.7 |
| 20260510011655 | 37 | 152 | 0.0 | 0.0 | 0.00 | 0.00 | 0.00 | 85 | 1018.8 |
| 20260510010930 | 37 | 152 | 0.0 | 0.0 | 0.00 | 0.00 | 0.00 | 85 | 1018.8 |
| 20260510010209 | 38 | 152 | 0.0 | 0.0 | 0.00 | 0.00 | 0.00 | 84 | 1018.9 |
| 20260510005709 | 38 | 152 | 0.0 | 0.0 | 0.00 | 0.00 | 0.00 | 84 | 1018.8 |
| 20260510005208 | 38 | 152 | 0.0 | 0.0 | 0.00 | 0.00 | 0.00 | 84 | 1018.8 |
| 20260510004708 | 38 | 152 | 0.0 | 0.0 | 0.00 | 0.00 | 0.00 | 83 | 1018.9 |
| 20260510004209 | 39 | 152 | 0.0 | 0.9 | 0.00 | 0.00 | 0.00 | 83 | 1018.9 |
| 20260510003709 | 39 | 152 | 0.0 | 0.9 | 0.00 | 0.00 | 0.00 | 84 | 1019.0 |
| 20260510003210 | 39 | 152 | 0.0 | 0.9 | 0.00 | 0.00 | 0.00 | 84 | 1019.0 |
| 20260510002709 | 39 | 152 | 0.0 | 1.7 | 0.00 | 0.00 | 0.00 | 84 | 1019.1 |
| 20260510002436 | 40 | 152 | 0.0 | 1.7 | 0.00 | 0.00 | 0.00 | 85 | 1019.1 |
| 20260510001708 | 39 | 152 | 0.9 | 1.7 | 0.00 | 0.00 | 0.00 | 85 | 1019.1 |
| 20260510001208 | 39 | 152 | 0.9 | 2.6 | 0.00 | 0.00 | 0.00 | 86 | 1019.2 |
| 20260510000936 | 39 | 152 | 0.9 | 2.6 | 0.00 | 0.00 | 0.00 | 87 | 1019.2 |
| 20260510000219 | 39 | 148 | 1.7 | 2.6 | 0.00 | 0.00 | 0.00 | 88 | 1019.3 |
| 20260509235708 | 39 | 145 | 1.7 | 2.6 | 0.00 | 0.00 | 0.00 | 90 | 1019.4 |
| 20260509235209 | 38 | 141 | 1.7 | 2.6 | 0.00 | 0.00 | 0.00 | 90 | 1019.4 |
| 20260509234708 | 38 | 140 | 1.7 | 2.6 | 0.00 | 0.00 | 0.00 | 90 | 1019.5 |
| 20260509234208 | 37 | 140 | 0.9 | 1.7 | 0.00 | 0.00 | 0.00 | 90 | 1019.5 |
| 20260509233708 | 37 | 140 | 0.9 | 1.7 | 0.00 | 0.00 | 0.00 | 89 | 1019.6 |
| 20260509233208 | 37 | 140 | 0.0 | 0.9 | 0.00 | 0.00 | 0.00 | 89 | 1019.6 |
| 20260509232708 | 37 | 140 | 0.0 | 0.9 | 0.00 | 0.00 | 0.00 | 88 | 1019.8 |
| 20260509232207 | 37 | 140 | 0.0 | 0.0 | 0.00 | 0.00 | 0.00 | 87 | 1019.9 |
| 20260509231924 | 38 | 140 | 0.0 | 0.0 | 0.00 | 0.00 | 0.00 | 87 | 1020.0 |
| 20260509231204 | 38 | 140 | 0.0 | 0.0 | 0.00 | 0.00 | 0.00 | 87 | 1020.1 |
| 20260509230705 | 38 | 140 | 0.0 | 0.0 | 0.00 | 0.00 | 0.00 | 86 | 1020.2 |
| 20260509230206 | 38 | 140 | 0.0 | 0.0 | 0.00 | 0.00 | 0.00 | 86 | 1020.2 |
| 20260509225707 | 39 | 140 | 0.0 | 0.0 | 0.00 | 0.00 | 0.00 | 86 | 1020.2 |
| 20260509225432 | 39 | 140 | 0.0 | 0.0 | 0.00 | 0.00 | 0.00 | 86 | 1020.4 |
| 20260509224707 | 40 | 140 | 0.0 | 0.0 | 0.00 | 0.00 | 0.00 | 86 | 1020.4 |
| 20260509224206 | 40 | 140 | 0.0 | 0.9 | 0.00 | 0.00 | 0.00 | 86 | 1020.4 |
| 20260509223708 | 40 | 140 | 0.0 | 1.7 | 0.00 | 0.00 | 0.00 | 86 | 1020.4 |
| 20260509223207 | 40 | 140 | 0.9 | 1.7 | 0.00 | 0.00 | 0.00 | 86 | 1020.4 |
| 20260509222707 | 40 | 140 | 0.9 | 1.7 | 0.00 | 0.00 | 0.00 | 85 | 1020.4 |
| 20260509222205 | 41 | 140 | 0.0 | 1.7 | 0.00 | 0.00 | 0.00 | 85 | 1020.5 |
| 20260509221705 | 41 | 140 | 0.9 | 1.7 | 0.00 | 0.00 | 0.00 | 85 | 1020.6 |
| 20260509221205 | 41 | 140 | 0.9 | 1.7 | 0.00 | 0.00 | 0.00 | 85 | 1020.6 |
| 20260509220705 | 42 | 140 | 1.7 | 2.6 | 0.00 | 0.00 | 0.00 | 85 | 1020.6 |
| 20260509220204 | 42 | 140 | 1.7 | 2.6 | 0.00 | 0.00 | 0.00 | 85 | 1020.7 |
| 20260509215927 | 42 | 140 | 1.7 | 2.6 | 0.00 | 0.00 | 0.00 | 84 | 1020.8 |
| 20260509215426 | 42 | 140 | 1.7 | 2.6 | 0.00 | 0.00 | 0.00 | 84 | 1020.8 |
| 20260509215153 | 42 | 140 | 0.9 | 3.5 | 0.00 | 0.00 | 0.00 | 84 | 1020.8 |
| 20260509214206 | 42 | 140 | 1.7 | 3.5 | 0.00 | 0.00 | 0.00 | 84 | 1020.8 |
| 20260509213705 | 42 | 140 | 1.7 | 2.6 | 0.00 | 0.00 | 0.00 | 84 | 1020.8 |
| 20260509213205 | 42 | 140 | 1.7 | 2.6 | 0.00 | 0.00 | 0.00 | 83 | 1021.0 |
| 20260509212705 | 42 | 140 | 1.7 | 2.6 | 0.00 | 0.00 | 0.00 | 84 | 1021.0 |
| 20260509212206 | 42 | 140 | 1.7 | 2.6 | 0.00 | 0.00 | 0.00 | 83 | 1020.9 |
| 20260509211702 | 42 | 140 | 2.6 | 2.6 | 0.00 | 0.00 | 0.00 | 83 | 1021.0 |
| 20260509211202 | 42 | 140 | 1.7 | 2.6 | 0.00 | 0.00 | 0.00 | 83 | 1021.1 |
| 20260509210702 | 42 | 140 | 1.7 | 2.6 | 0.00 | 0.00 | 0.00 | 83 | 1021.1 |
| 20260509210205 | 42 | 140 | 1.7 | 2.6 | 0.00 | 0.00 | 0.00 | 83 | 1021.2 |
| 20260509205929 | 42 | 140 | 0.9 | 2.6 | 0.00 | 0.00 | 0.00 | 83 | 1021.2 |
| 20260509205204 | 42 | 140 | 1.7 | 2.6 | 0.00 | 0.00 | 0.00 | 82 | 1021.3 |
| 20260509205149 | 43 | 140 | 1.7 | 2.6 | 0.00 | 0.00 | 0.00 | 81 | 1021.3 |
| 20260509204205 | 43 | 140 | 1.7 | 2.6 | 0.00 | 0.00 | 0.00 | 81 | 1021.4 |
| 20260509203705 | 43 | 140 | 0.9 | 2.6 | 0.00 | 0.00 | 0.00 | 80 | 1021.4 |
| 20260509203653 | 42 | 140 | 1.7 | 2.6 | 0.00 | 0.00 | 0.00 | 80 | 1021.4 |
| 20260509202701 | 42 | 140 | 1.7 | 2.6 | 0.00 | 0.00 | 0.00 | 79 | 1021.5 |
| 20260509202203 | 43 | 140 | 1.7 | 1.7 | 0.00 | 0.00 | 0.00 | 79 | 1021.5 |
| 20260509201703 | 43 | 140 | 0.9 | 2.6 | 0.00 | 0.00 | 0.00 | 79 | 1021.5 |
| 20260509201202 | 43 | 141 | 1.7 | 2.6 | 0.00 | 0.00 | 0.00 | 79 | 1021.6 |
| 20260509200702 | 42 | 141 | 1.7 | 2.6 | 0.00 | 0.00 | 0.00 | 78 | 1021.6 |
| 20260509200202 | 43 | 176 | 1.7 | 1.7 | 0.00 | 0.00 | 0.00 | 78 | 1021.6 |
| 20260509195701 | 43 | 176 | 0.9 | 1.7 | 0.00 | 0.00 | 0.00 | 78 | 1021.6 |
| 20260509195201 | 43 | 176 | 0.9 | 1.7 | 0.00 | 0.00 | 0.00 | 77 | 1021.7 |
| 20260509194700 | 43 | 176 | 0.9 | 1.7 | 0.00 | 0.00 | 0.00 | 76 | 1021.8 |
| 20260509194423 | 43 | 176 | 0.9 | 2.6 | 0.00 | 0.00 | 0.00 | 75 | 1021.8 |
| 20260509193700 | 43 | 176 | 0.9 | 2.6 | 0.00 | 0.00 | 0.00 | 75 | 1021.8 |
| 20260509193200 | 43 | 176 | 1.7 | 1.7 | 0.00 | 0.00 | 0.00 | 74 | 1021.8 |
| 20260509192700 | 43 | 176 | 0.9 | 1.7 | 0.00 | 0.00 | 0.00 | 73 | 1021.9 |
| 20260509192200 | 44 | 176 | 0.9 | 1.7 | 0.00 | 0.00 | 0.00 | 73 | 1021.9 |
| 20260509191700 | 44 | 176 | 0.9 | 1.7 | 0.00 | 0.00 | 0.00 | 72 | 1021.9 |
| 20260509191200 | 44 | 176 | 1.7 | 1.7 | 0.00 | 0.00 | 0.00 | 72 | 1021.9 |
| 20260509190700 | 44 | 176 | 1.7 | 1.7 | 0.00 | 0.00 | 0.00 | 71 | 1021.9 |
| 20260509190159 | 45 | 176 | 0.9 | 1.7 | 0.00 | 0.00 | 0.00 | 71 | 1021.9 |
| 20260509185701 | 45 | 176 | 1.7 | 1.7 | 0.00 | 0.00 | 0.00 | 70 | 1022.1 |
| 20260509185201 | 45 | 176 | 0.9 | 1.7 | 0.00 | 0.00 | 0.00 | 69 | 1022.1 |
| 20260509184919 | 45 | 176 | 0.9 | 1.7 | 0.00 | 0.00 | 0.00 | 69 | 1022.1 |
| 20260509184201 | 46 | 176 | 0.9 | 1.7 | 0.00 | 0.00 | 0.00 | 68 | 1022.2 |
| 20260509183700 | 46 | 176 | 0.9 | 0.9 | 0.00 | 0.00 | 0.00 | 67 | 1022.2 |
| 20260509183200 | 47 | 176 | 0.9 | 1.7 | 0.00 | 0.00 | 0.00 | 66 | 1022.2 |
| 20260509182701 | 47 | 176 | 0.9 | 1.7 | 0.00 | 0.00 | 0.00 | 65 | 1022.3 |
| 20260509182200 | 47 | 176 | 0.9 | 3.5 | 0.00 | 0.00 | 0.00 | 65 | 1022.3 |
| 20260509181916 | 47 | 176 | 0.9 | 4.3 | 0.00 | 0.00 | 0.00 | 65 | 1022.3 |
| 20260509181200 | 47 | 176 | 1.7 | 4.3 | 0.00 | 0.00 | 0.00 | 64 | 1022.3 |
| 20260509180700 | 48 | 169 | 1.7 | 4.3 | 0.00 | 0.00 | 0.00 | 64 | 1022.2 |
| 20260509180159 | 48 | 159 | 1.7 | 4.3 | 0.00 | 0.00 | 0.00 | 63 | 1022.3 |
| 20260509175700 | 48 | 157 | 3.5 | 6.1 | 0.00 | 0.00 | 0.00 | 62 | 1022.3 |
| 20260509175417 | 48 | 137 | 3.5 | 6.1 | 0.00 | 0.00 | 0.00 | 61 | 1022.3 |
| 20260509174659 | 48 | 171 | 3.5 | 5.2 | 0.00 | 0.00 | 0.00 | 60 | 1022.3 |
| 20260509174419 | 49 | 197 | 3.5 | 5.2 | 0.00 | 0.00 | 0.00 | 59 | 1022.3 |
| 20260509173659 | 49 | 166 | 1.7 | 5.2 | 0.00 | 0.00 | 0.00 | 59 | 1022.3 |
| 20260509173200 | 49 | 155 | 3.5 | 7.8 | 0.00 | 0.00 | 0.00 | 58 | 1022.2 |
| 20260509172918 | 49 | 183 | 3.5 | 7.8 | 0.00 | 0.00 | 0.00 | 61 | 1022.3 |
| 20260509172159 | 49 | 99 | 3.5 | 7.8 | 0.00 | 0.00 | 0.00 | 62 | 1022.3 |
| 20260509172141 | 50 | 113 | 5.2 | 7.8 | 0.00 | 0.00 | 0.00 | 60 | 1022.3 |
| 20260509171158 | 50 | 155 | 4.3 | 6.1 | 0.00 | 0.00 | 0.00 | 58 | 1022.3 |
| 20260509170659 | 50 | 141 | 3.5 | 7.8 | 0.00 | 0.00 | 0.00 | 57 | 1022.4 |
| 20260509170158 | 50 | 189 | 3.5 | 9.6 | 0.00 | 0.00 | 0.00 | 53 | 1022.5 |
| 20260509165658 | 50 | 138 | 7.0 | 9.6 | 0.00 | 0.00 | 0.00 | 53 | 1022.4 |
| 20260509165158 | 51 | 202 | 5.2 | 7.8 | 0.00 | 0.00 | 0.00 | 52 | 1022.5 |
| 20260509164921 | 51 | 180 | 1.7 | 8.7 | 0.00 | 0.00 | 0.00 | 53 | 1022.6 |
| 20260509164158 | 51 | 123 | 5.2 | 8.7 | 0.00 | 0.00 | 0.00 | 56 | 1022.6 |
| 20260509163658 | 51 | 155 | 4.3 | 9.6 | 0.00 | 0.00 | 0.00 | 56 | 1022.6 |
| 20260509163158 | 51 | 109 | 7.0 | 10.4 | 0.00 | 0.00 | 0.00 | 56 | 1022.6 |
| 20260509162658 | 51 | 100 | 6.1 | 10.4 | 0.00 | 0.00 | 0.00 | 56 | 1022.7 |
| 20260509162158 | 51 | 131 | 7.0 | 10.4 | 0.00 | 0.00 | 0.00 | 53 | 1022.7 |
| 20260509161657 | 51 | 97 | 5.2 | 9.6 | 0.00 | 0.00 | 0.00 | 53 | 1022.8 |
| 20260509161157 | 51 | 178 | 5.2 | 9.6 | 0.00 | 0.00 | 0.00 | 53 | 1022.8 |
| 20260509160658 | 52 | 120 | 4.3 | 8.7 | 0.00 | 0.00 | 0.00 | 52 | 1022.8 |
| 20260509160157 | 52 | 151 | 3.5 | 9.6 | 0.00 | 0.00 | 0.00 | 52 | 1023.0 |
| 20260509155657 | 52 | 100 | 5.2 | 9.6 | 0.00 | 0.00 | 0.00 | 51 | 1022.9 |
| 20260509155414 | 52 | 155 | 4.3 | 10.4 | 0.00 | 0.00 | 0.00 | 53 | 1023.0 |
| 20260509154657 | 51 | 106 | 3.5 | 10.4 | 0.00 | 0.00 | 0.00 | 53 | 1023.0 |
| 20260509154158 | 52 | 128 | 7.8 | 10.4 | 0.00 | 0.00 | 0.00 | 51 | 1023.1 |
| 20260509153917 | 51 | 152 | 7.0 | 10.4 | 0.00 | 0.00 | 0.00 | 53 | 1023.1 |
| 20260509153157 | 52 | 131 | 4.3 | 9.6 | 0.00 | 0.00 | 0.00 | 53 | 1023.2 |
| 20260509152656 | 51 | 110 | 5.2 | 9.6 | 0.00 | 0.00 | 0.00 | 51 | 1023.2 |
| 20260509152156 | 52 | 100 | 5.2 | 9.6 | 0.00 | 0.00 | 0.00 | 50 | 1023.1 |
| 20260509151657 | 52 | 135 | 7.0 | 10.4 | 0.00 | 0.00 | 0.00 | 51 | 1023.1 |
| 20260509151156 | 52 | 120 | 7.0 | 12.2 | 0.00 | 0.00 | 0.00 | 52 | 1023.3 |
| 20260509150656 | 52 | 133 | 6.1 | 12.2 | 0.00 | 0.00 | 0.00 | 50 | 1023.3 |
| 20260509150156 | 53 | 107 | 6.1 | 8.7 | 0.00 | 0.00 | 0.00 | 51 | 1023.4 |
| 20260509145656 | 52 | 114 | 5.2 | 12.2 | 0.00 | 0.00 | 0.00 | 52 | 1023.3 |
| 20260509145426 | 52 | 69 | 7.8 | 12.2 | 0.00 | 0.00 | 0.00 | 52 | 1023.4 |
| 20260509144657 | 53 | 147 | 6.1 | 11.3 | 0.00 | 0.00 | 0.00 | 52 | 1023.5 |
| 20260509144417 | 53 | 152 | 6.1 | 12.2 | 0.00 | 0.00 | 0.00 | 50 | 1023.5 |
| 20260509143922 | 53 | 127 | 7.8 | 12.2 | 0.00 | 0.00 | 0.00 | 50 | 1023.6 |
| 20260509143155 | 53 | 104 | 7.0 | 10.4 | 0.00 | 0.00 | 0.00 | 50 | 1023.6 |
| 20260509142655 | 53 | 138 | 5.2 | 12.2 | 0.00 | 0.00 | 0.00 | 50 | 1023.7 |
| 20260509142156 | 53 | 133 | 8.7 | 12.2 | 0.00 | 0.00 | 0.00 | 50 | 1023.7 |
| 20260509141655 | 53 | 127 | 7.0 | 11.3 | 0.00 | 0.00 | 0.00 | 49 | 1023.7 |
| 20260509141154 | 53 | 90 | 7.8 | 11.3 | 0.00 | 0.00 | 0.00 | 48 | 1023.8 |
| 20260509140655 | 53 | 134 | 7.8 | 11.3 | 0.00 | 0.00 | 0.00 | 48 | 1023.8 |
| 20260509140413 | 53 | 120 | 8.7 | 11.3 | 0.00 | 0.00 | 0.00 | 48 | 1023.9 |
| 20260509135654 | 53 | 182 | 5.2 | 13.0 | 0.00 | 0.00 | 0.00 | 49 | 1023.9 |
| 20260509135414 | 53 | 168 | 7.0 | 13.0 | 0.00 | 0.00 | 0.00 | 49 | 1024.0 |
| 20260509134917 | 54 | 131 | 8.7 | 12.2 | 0.00 | 0.00 | 0.00 | 46 | 1024.0 |
| 20260509134416 | 54 | 151 | 5.2 | 11.3 | 0.00 | 0.00 | 0.00 | 47 | 1024.0 |
| 20260509133654 | 54 | 120 | 6.1 | 14.8 | 0.00 | 0.00 | 0.00 | 47 | 1024.1 |
| 20260509133154 | 55 | 110 | 11.3 | 14.8 | 0.00 | 0.00 | 0.00 | 45 | 1024.2 |
| 20260509132654 | 55 | 124 | 5.2 | 13.0 | 0.00 | 0.00 | 0.00 | 45 | 1024.2 |
| 20260509132154 | 54 | 66 | 6.1 | 13.9 | 0.00 | 0.00 | 0.00 | 43 | 1024.2 |
| 20260509131654 | 55 | 100 | 8.7 | 13.9 | 0.00 | 0.00 | 0.00 | 42 | 1024.3 |
| 20260509131155 | 55 | 83 | 7.0 | 12.2 | 0.00 | 0.00 | 0.00 | 44 | 1024.3 |
| 20260509130654 | 55 | 199 | 4.3 | 12.2 | 0.00 | 0.00 | 0.00 | 43 | 1024.4 |
| 20260509130153 | 55 | 149 | 7.8 | 13.0 | 0.00 | 0.00 | 0.00 | 43 | 1024.5 |
| 20260509125653 | 55 | 111 | 6.1 | 13.0 | 0.00 | 0.00 | 0.00 | 43 | 1024.5 |
| 20260509125420 | 56 | 93 | 5.2 | 10.4 | 0.00 | 0.00 | 0.00 | 42 | 1024.5 |
| 20260509124919 | 56 | 75 | 5.2 | 11.3 | 0.00 | 0.00 | 0.00 | 43 | 1024.5 |
| 20260509124153 | 55 | 149 | 6.1 | 12.2 | 0.00 | 0.00 | 0.00 | 43 | 1024.5 |
| 20260509123911 | 56 | 117 | 8.7 | 12.2 | 0.00 | 0.00 | 0.00 | 41 | 1024.6 |
| 20260509123153 | 56 | 82 | 4.3 | 11.3 | 0.00 | 0.00 | 0.00 | 43 | 1024.7 |
| 20260509122653 | 56 | 144 | 7.0 | 12.2 | 0.00 | 0.00 | 0.00 | 44 | 1024.6 |
| 20260509122152 | 56 | 117 | 7.0 | 12.2 | 0.00 | 0.00 | 0.00 | 44 | 1024.7 |
| 20260509121913 | 56 | 104 | 6.1 | 9.6 | 0.00 | 0.00 | 0.00 | 43 | 1024.7 |
| 20260509121153 | 57 | 134 | 5.2 | 9.6 | 0.00 | 0.00 | 0.00 | 43 | 1024.8 |
| 20260509120652 | 56 | 147 | 3.5 | 8.7 | 0.00 | 0.00 | 0.00 | 43 | 1024.8 |
| 20260509120152 | 56 | 172 | 5.2 | 8.7 | 0.00 | 0.00 | 0.00 | 43 | 1024.9 |
| 20260509115653 | 56 | 212 | 3.5 | 12.2 | 0.00 | 0.00 | 0.00 | 43 | 1024.8 |
| 20260509115418 | 56 | 206 | 5.2 | 12.2 | 0.00 | 0.00 | 0.00 | 43 | 1025.0 |
| 20260509115128 | 56 | 127 | 5.2 | 10.4 | 0.00 | 0.00 | 0.00 | 42 | 1025.0 |
| 20260509114152 | 56 | 157 | 6.1 | 10.4 | 0.00 | 0.00 | 0.00 | 42 | 1024.9 |
| 20260509113652 | 56 | 144 | 6.1 | 12.2 | 0.00 | 0.00 | 0.00 | 41 | 1025.0 |
| 20260509113151 | 57 | 172 | 7.0 | 12.2 | 0.00 | 0.00 | 0.00 | 41 | 1025.1 |
| 20260509112652 | 57 | 169 | 5.2 | 8.7 | 0.00 | 0.00 | 0.00 | 39 | 1025.1 |
| 20260509112151 | 57 | 210 | 1.7 | 9.6 | 0.00 | 0.00 | 0.00 | 39 | 1025.3 |
| 20260509111652 | 57 | 214 | 5.2 | 9.6 | 0.00 | 0.00 | 0.00 | 38 | 1025.3 |
| 20260509111410 | 57 | 192 | 6.1 | 8.7 | 0.00 | 0.00 | 0.00 | 39 | 1025.3 |
| 20260509110650 | 57 | 245 | 5.2 | 11.3 | 0.00 | 0.00 | 0.00 | 40 | 1025.3 |
| 20260509110150 | 56 | 166 | 3.5 | 11.3 | 0.00 | 0.00 | 0.00 | 39 | 1025.4 |
| 20260509105652 | 56 | 223 | 3.5 | 10.4 | 0.00 | 0.00 | 0.00 | 42 | 1025.4 |
| 20260509105152 | 56 | 97 | 6.1 | 10.4 | 0.00 | 0.00 | 0.00 | 43 | 1025.4 |
| 20260509104652 | 56 | 251 | 2.6 | 9.6 | 0.00 | 0.00 | 0.00 | 46 | 1025.4 |
| 20260509104152 | 55 | 172 | 6.1 | 9.6 | 0.00 | 0.00 | 0.00 | 45 | 1025.5 |
| 20260509103652 | 55 | 179 | 4.3 | 11.3 | 0.00 | 0.00 | 0.00 | 46 | 1025.6 |
| 20260509103645 | 55 | 157 | 7.0 | 11.3 | 0.00 | 0.00 | 0.00 | 46 | 1025.6 |
| 20260509102651 | 55 | 162 | 7.0 | 11.3 | 0.00 | 0.00 | 0.00 | 45 | 1025.5 |
| 20260509102151 | 55 | 166 | 5.2 | 9.6 | 0.00 | 0.00 | 0.00 | 47 | 1025.6 |
| 20260509101651 | 56 | 204 | 3.5 | 9.6 | 0.00 | 0.00 | 0.00 | 47 | 1025.6 |
| 20260509101150 | 55 | 183 | 1.7 | 10.4 | 0.00 | 0.00 | 0.00 | 53 | 1025.6 |
| 20260509100649 | 54 | 107 | 7.0 | 12.2 | 0.00 | 0.00 | 0.00 | 52 | 1025.6 |
| 20260509100149 | 54 | 116 | 4.3 | 12.2 | 0.00 | 0.00 | 0.00 | 52 | 1025.5 |
| 20260509095650 | 54 | 79 | 6.1 | 11.3 | 0.00 | 0.00 | 0.00 | 52 | 1025.6 |
| 20260509095413 | 53 | 117 | 5.2 | 11.3 | 0.00 | 0.00 | 0.00 | 52 | 1025.6 |
| 20260509094649 | 54 | 102 | 6.1 | 11.3 | 0.00 | 0.00 | 0.00 | 52 | 1025.6 |
| 20260509094149 | 53 | 83 | 5.2 | 10.4 | 0.00 | 0.00 | 0.00 | 51 | 1025.6 |
| 20260509093649 | 53 | 56 | 6.1 | 10.4 | 0.00 | 0.00 | 0.00 | 51 | 1025.6 |
| 20260509093149 | 54 | 131 | 4.3 | 9.6 | 0.00 | 0.00 | 0.00 | 52 | 1025.7 |
| 20260509092649 | 54 | 142 | 6.1 | 9.6 | 0.00 | 0.00 | 0.00 | 50 | 1025.7 |
| 20260509092149 | 54 | 158 | 5.2 | 9.6 | 0.00 | 0.00 | 0.00 | 52 | 1025.6 |
| 20260509091649 | 54 | 173 | 5.2 | 11.3 | 0.00 | 0.00 | 0.00 | 52 | 1025.7 |
| 20260509091150 | 54 | 86 | 2.6 | 11.3 | 0.00 | 0.00 | 0.00 | 51 | 1025.8 |
| 20260509090648 | 53 | 135 | 7.0 | 11.3 | 0.00 | 0.00 | 0.00 | 53 | 1025.8 |
| 20260509090147 | 53 | 142 | 5.2 | 11.3 | 0.00 | 0.00 | 0.00 | 52 | 1025.8 |
| 20260509085647 | 53 | 85 | 7.8 | 13.0 | 0.00 | 0.00 | 0.00 | 49 | 1025.8 |
| 20260509085147 | 53 | 173 | 7.8 | 13.0 | 0.00 | 0.00 | 0.00 | 50 | 1025.8 |
| 20260509084647 | 53 | 97 | 7.0 | 12.2 | 0.00 | 0.00 | 0.00 | 50 | 1025.9 |
| 20260509084147 | 53 | 114 | 7.8 | 12.2 | 0.00 | 0.00 | 0.00 | 50 | 1025.8 |
| 20260509083909 | 53 | 137 | 7.8 | 9.6 | 0.00 | 0.00 | 0.00 | 47 | 1025.9 |
| 20260509083147 | 54 | 135 | 5.2 | 11.3 | 0.00 | 0.00 | 0.00 | 47 | 1025.9 |
| 20260509082647 | 54 | 103 | 7.0 | 11.3 | 0.00 | 0.00 | 0.00 | 46 | 1025.9 |
| 20260509082146 | 54 | 94 | 6.1 | 9.6 | 0.00 | 0.00 | 0.00 | 45 | 1025.9 |
| 20260509081646 | 54 | 117 | 7.0 | 9.6 | 0.00 | 0.00 | 0.00 | 47 | 1026.1 |
| 20260509081146 | 54 | 212 | 4.3 | 9.6 | 0.00 | 0.00 | 0.00 | 46 | 1026.2 |
| 20260509080646 | 53 | 159 | 7.8 | 11.3 | 0.00 | 0.00 | 0.00 | 46 | 1026.1 |
| 20260509080145 | 53 | 130 | 6.1 | 12.2 | 0.00 | 0.00 | 0.00 | 46 | 1026.0 |
| 20260509075646 | 54 | 172 | 7.0 | 12.2 | 0.00 | 0.00 | 0.00 | 45 | 1026.2 |
| 20260509075145 | 54 | 79 | 7.0 | 9.6 | 0.00 | 0.00 | 0.00 | 45 | 1026.2 |
| 20260509074645 | 54 | 138 | 6.1 | 13.9 | 0.00 | 0.00 | 0.00 | 46 | 1026.2 |
| 20260509074146 | 53 | 133 | 7.8 | 13.9 | 0.00 | 0.00 | 0.00 | 46 | 1026.3 |
| 20260509073645 | 54 | 118 | 5.2 | 13.0 | 0.00 | 0.00 | 0.00 | 46 | 1026.2 |
| 20260509073145 | 54 | 131 | 7.8 | 13.0 | 0.00 | 0.00 | 0.00 | 48 | 1026.2 |
| 20260509072645 | 53 | 189 | 5.2 | 10.4 | 0.00 | 0.00 | 0.00 | 46 | 1026.2 |
| 20260509072146 | 53 | 135 | 8.7 | 11.3 | 0.00 | 0.00 | 0.00 | 47 | 1026.2 |
| 20260509071644 | 54 | 109 | 4.3 | 11.3 | 0.00 | 0.00 | 0.00 | 47 | 1026.2 |
| 20260509071145 | 54 | 171 | 3.5 | 7.8 | 0.00 | 0.00 | 0.00 | 49 | 1026.2 |
| 20260509070645 | 53 | 142 | 3.5 | 7.8 | 0.00 | 0.00 | 0.00 | 49 | 1026.3 |
| 20260509070144 | 53 | 137 | 1.7 | 9.6 | 0.00 | 0.00 | 0.00 | 54 | 1026.3 |
| 20260509065644 | 53 | 109 | 4.3 | 9.6 | 0.00 | 0.00 | 0.00 | 54 | 1026.3 |
| 20260509065145 | 52 | 116 | 3.5 | 7.8 | 0.00 | 0.00 | 0.00 | 55 | 1026.3 |
| 20260509064645 | 52 | 161 | 2.6 | 7.8 | 0.00 | 0.00 | 0.00 | 56 | 1026.3 |
| 20260509064145 | 51 | 99 | 3.5 | 5.2 | 0.00 | 0.00 | 0.00 | 57 | 1026.3 |
| 20260509063644 | 51 | 117 | 3.5 | 5.2 | 0.00 | 0.00 | 0.00 | 58 | 1026.3 |
| 20260509063144 | 51 | 97 | 0.9 | 4.3 | 0.00 | 0.00 | 0.00 | 59 | 1026.3 |
| 20260509062644 | 51 | 165 | 3.5 | 7.8 | 0.00 | 0.00 | 0.00 | 58 | 1026.3 |
| 20260509062410 | 51 | 151 | 4.3 | 7.8 | 0.00 | 0.00 | 0.00 | 59 | 1026.3 |
| 20260509061907 | 51 | 124 | 5.2 | 7.8 | 0.00 | 0.00 | 0.00 | 58 | 1026.3 |
| 20260509061144 | 50 | 82 | 3.5 | 6.1 | 0.00 | 0.00 | 0.00 | 59 | 1026.3 |
| 20260509060643 | 49 | 96 | 4.3 | 6.1 | 0.00 | 0.00 | 0.00 | 60 | 1026.3 |
| 20260509060144 | 49 | 117 | 3.5 | 6.1 | 0.00 | 0.00 | 0.00 | 60 | 1026.3 |
| 20260509055643 | 49 | 120 | 4.3 | 6.1 | 0.00 | 0.00 | 0.00 | 60 | 1026.3 |
| 20260509055143 | 49 | 120 | 2.6 | 7.8 | 0.00 | 0.00 | 0.00 | 60 | 1026.3 |
| 20260509054643 | 49 | 133 | 1.7 | 7.8 | 0.00 | 0.00 | 0.00 | 61 | 1026.3 |
| 20260509054143 | 48 | 138 | 3.5 | 9.6 | 0.00 | 0.00 | 0.00 | 62 | 1026.4 |
| 20260509053643 | 48 | 157 | 1.7 | 9.6 | 0.00 | 0.00 | 0.00 | 62 | 1026.4 |
| 20260509053407 | 48 | 114 | 4.3 | 8.7 | 0.00 | 0.00 | 0.00 | 61 | 1026.4 |
| 20260509052643 | 48 | 111 | 2.6 | 8.7 | 0.00 | 0.00 | 0.00 | 62 | 1026.4 |
| 20260509052143 | 48 | 130 | 3.5 | 8.7 | 0.00 | 0.00 | 0.00 | 62 | 1026.4 |
| 20260509051642 | 47 | 154 | 4.3 | 6.1 | 0.00 | 0.00 | 0.00 | 63 | 1026.4 |
| 20260509051407 | 47 | 110 | 2.6 | 5.2 | 0.00 | 0.00 | 0.00 | 63 | 1026.4 |
| 20260509050643 | 46 | 80 | 3.5 | 5.2 | 0.00 | 0.00 | 0.00 | 64 | 1026.6 |
| 20260509050143 | 46 | 87 | 3.5 | 5.2 | 0.00 | 0.00 | 0.00 | 64 | 1026.5 |
| 20260509045642 | 45 | 104 | 3.5 | 5.2 | 0.00 | 0.00 | 0.00 | 64 | 1026.5 |
| 20260509045141 | 45 | 89 | 2.6 | 4.3 | 0.00 | 0.00 | 0.00 | 65 | 1026.6 |
| 20260509044642 | 44 | 66 | 2.6 | 4.3 | 0.00 | 0.00 | 0.00 | 66 | 1026.5 |
| 20260509044631 | 44 | 103 | 3.5 | 4.3 | 0.00 | 0.00 | 0.00 | 66 | 1026.5 |
| 20260509043642 | 44 | 87 | 2.6 | 5.2 | 0.00 | 0.00 | 0.00 | 66 | 1026.5 |
| 20260509043142 | 43 | 93 | 3.5 | 5.2 | 0.00 | 0.00 | 0.00 | 67 | 1026.5 |
| 20260509042908 | 43 | 80 | 3.5 | 4.3 | 0.00 | 0.00 | 0.00 | 67 | 1026.5 |
| 20260509042141 | 42 | 89 | 3.5 | 4.3 | 0.00 | 0.00 | 0.00 | 68 | 1026.5 |
| 20260509041641 | 42 | 79 | 3.5 | 4.3 | 0.00 | 0.00 | 0.00 | 68 | 1026.5 |
| 20260509041141 | 42 | 83 | 1.7 | 3.5 | 0.00 | 0.00 | 0.00 | 67 | 1026.4 |
| 20260509040642 | 42 | 94 | 2.6 | 3.5 | 0.00 | 0.00 | 0.00 | 68 | 1026.5 |
| 20260509040141 | 41 | 94 | 1.7 | 2.6 | 0.00 | 0.00 | 0.00 | 68 | 1026.4 |
| 20260509035641 | 41 | 102 | 2.6 | 2.6 | 0.00 | 0.00 | 0.00 | 68 | 1026.5 |
| 20260509035141 | 41 | 102 | 1.7 | 2.6 | 0.00 | 0.00 | 0.00 | 68 | 1026.5 |